Volver al catálogo

STARLINK-36440

ActivoComunicacionesVLEO
NORAD 67447·PAYLOAD·🇺🇸 United States

Lanzado Jan 14, 2026 desde Cape Canaveral Space Force Station

Loading…

Próximos Pases (próximas 24 horas)

TLE

ActualizadoSource: CelesTrak SupGP

Época: Sep 15, 2026, 03:54 UTC

1 67447C 26008C   26258.16298611 -.00047225  00000+0 -17106-2 0  2587
2 67447  42.9996 214.8257 0001276 272.7485  91.0325 15.27599336    10

Sigue STARLINK-36440 en tiempo real con AllMySat

Download on the App Store